Tracking 19969 objects as of 12-Nov-2019
Live streaming from Space Station
objects crossing your sky now
Track the group of recently launched Starlink satellites

SL-8 DEB

Track SL-8 DEB now!
10-day predictions


NORAD ID: 21174
Int'l Code: 1991-009AM
Perigee: 1,467.3 km
Apogee: 1,915.5 km
Inclination: 74.1 °
Period: 120.1 minutes
Semi major axis: 8062 km
RCS: 0.0735 m2 (small)
Launch date: February 12, 1991
Source: Commonwealth of Independent States (former USSR) (CIS)
Launch site: PLESETSK MISSILE AND SPACE COMPLEX (PKMTR)

Note: This is SATELLITE DEBRIS
aabbcc
Your satellite tracking list
Your tracking list is empty




NASA's NSSDC Master Catalog

Two Line Element Set (TLE):
1 21174U 91009AM  19316.06211203  .00000144  00000-0  17830-2 0  9999
2 21174  74.0875 156.8361 0277937 285.8528 247.5616 11.99239049255821
Source of the keplerian elements: AFSPC